Location: Kerberlivit
(48.2787°N, 4.5413°W)
Time: 09:24:56
(UTC+00:00)

Cosmos 2333 Rocket - Pass Details

Date: 18 February 2020
Orbit: 841 x 860 km, 70.8° (Epoch: 03 April)

Event Time Altitude Azimuth Distance (km) Brightness Sun altitude
Exits shadow 05:01:55 17° 332° (NNW) 2,049 4.0 -23.8°
Drops below altitude 10° 05:04:58 10° 4° (N) 2,494 4.8 -23.3°
Sets 05:08:21 0° 24° (NNE) 3,429 5.8 -22.7°
